Погода в Схаувен-Дёйвеланде

Нидерланды     51°41′00″N   3°57′44″E
темп.,
°C
ветер,
м/с
пор.,
м/с
влажн.,
%
обл.,
%
осадки,
мм/ч
давл.,
гПа
погр.,
м
16 апреля, пт
пт1623:00+6св686793 0.1 1031456
02:00+5св58656 0.1 1030337
05:00+4св56654 0.0 1030231
08:00+5св56665 0.0 1030300
11:00+7ссв67645 0.0 1030865
14:00+7ссз877392 0.0 1029674
17:00+8с12117275 0.0 1028709
20:00+7ссв1012756 0.0 1028486
17 апреля, сб
сб1723:00+7ссв79735 0.0 1029425
02:00+6св58685 0.0 1029366
05:00+5св57710 0.0 1028304
08:00+6св57744 0.0 1028372
11:00+7ссв67684 0.0 1028685
14:00+7с877620 0.0 1027580
17:00+7с9107869 0.0 1026472
20:00+7с811785 0.0 1025348
18 апреля, вс
вс1823:00+7ссв678162 0.0 1025284
02:00+7ссв558587 0.0 1025272
05:00+6ссв447896 0.0 1024224
08:00+7ссв3477100 0.0 1024245
11:00+7ссв2276100 0.0 1024233
14:00+8ссз3380100 0.0 1024276
17:00+7ссз5585100 0.0 1023265
20:00+8с4587100 0.0 1023140
19 апреля, пн
пн1923:00+8всв228699 0.1 102319
02:00+8св2289100 0.2 102233
05:00+8св2291100 0.2 102134
08:00+8ссв3389100 0.2 102159
11:00+9св3384100 0.1 102186
14:00+9с4381100 0.1 1020183
17:00+9ссз568729 0.0 1019273
20:00+8с578991 0.0 1018153
20 апреля, вт
вт2023:00+8с459483 0.1 101895
02:00+8ссв339455 0.1 101732
05:00+8ссв119356 0.0 101612
08:00+8с229359 0.0 101527
11:00+9ссз339061 0.3 1015164
14:00+8сз559119 0.9 1014286
17:00+8ссз56888 0.0 1013268
20:00+8ссз57896 0.0 1013179